Flag for Switzerland Weather past 2 weeks in Montreux, Vaud, Switzerland

Now
36 °F

Scattered clouds.


Feels Like: 36 °F
Forecast: 25 / 52 °F
Wind: 2 mph from North

Location: Aigle


UV Index: 3 (Moderate)

Visibility: 22 mi


Pressure: 30.24 "Hg

Humidity: 90%

Dew point: 33 °F

Location of MontreuxLocation

Historic Weather in Montreux

°F

Montreux temperature yesterday

Maximum temperature yesterday: 60 °F (at 5:00 PM)
Minimum temperature yesterday: 33 °F (at 4:00 AM)
Average temperature yesterday: 48 °F

Past Weeks' High & Low Weather Summary

 TemperatureHumidityPressure
High69 °F (Apr 7, 5:00 PM)98% (Apr 5, 7:00 AM)30.32 "Hg (Apr 5, 7:00 AM)
Low33 °F (Apr 17, 6:00 AM)27% (Apr 15, 6:00 PM)29.62 "Hg (Apr 3, 6:00 PM)
Average55 °F65%30.02 "Hg
* Reported Apr 2 7:00 AM — Apr 17 7:00 AM, Montreux, Weather by CustomWeather, © 2014

Note: Actual official high and low records may vary slightly from our data, if they occured in-between our weather recording intervals... More about our weather records

Advertising

Historic Weather Conditions — Data for Previous 24 hours

 ConditionsComfort  
Time TempWeatherWind HumidityBarometerVisibility
7:00 AM
Apr 17
35 °FChilly.No wind92%30.24 "HgN/A
6:00 AM33 °FChilly.1 mph95%30.25 "HgN/A
5:00 AM34 °FClear.1 mph94%30.25 "Hg22 mi
4:00 AM36 °FChilly.1 mph89%30.25 "HgN/A
3:00 AM38 °FChilly.No wind84%30.24 "HgN/A
2:00 AM39 °FChilly.1 mph81%30.25 "HgN/A
1:00 AM39 °FChilly.1 mph80%30.24 "HgN/A
12:00 AM43 °FQuite cool.2 mph67%30.23 "HgN/A
11:00 PM
Apr 16
46 °FCool.2 mph59%30.21 "HgN/A
10:00 PM50 °FCool.6 mph48%30.19 "HgN/A
9:00 PM53 °FCool.12 mph41%30.17 "HgN/A
8:00 PM55 °FSunny.9 mph39%30.15 "Hg19 mi
7:00 PM58 °FRefreshingly cool.13 mph34%30.13 "HgN/A
6:00 PM59 °FRefreshingly cool.14 mph33%30.12 "HgN/A
5:00 PM60 °FSunny.14 mph33%30.12 "Hg19 mi
4:00 PM59 °FRefreshingly cool.16 mph33%30.13 "HgN/A
3:00 PM58 °FRefreshingly cool.12 mph37%30.14 "HgN/A
2:00 PM56 °FSunny.10 mph40%30.16 "Hg16 mi
1:00 PM53 °FCool.7 mph45%30.18 "HgN/A
12:00 PM49 °FCool.9 mph49%30.20 "HgN/A
10:00 AM45 °FQuite cool.10 mph55%30.22 "HgN/A
9:00 AM43 °FQuite cool.7 mph62%30.23 "HgN/A
Weather by CustomWeather, © 2014

See weather overview